This demonstration page uses our WeatherBlox Daily Observations layout. Learn more.

39.92423, -83.80882

Hourly Observations for June 21, 2017

Temp ( °F °C ) Dew Point ( °F °C ) Humidity (%) Winds ( mph kmh ) Pressure ( in mb ) Visibility ( mi km ) Precip ( " mm )
12:08 am 00:08 Mostly Cloudy 72 22 55 13 57 57 NNW 16 26 29.99 1016 10 16.0934 0 0
12:18 am 00:18 Mostly Cloudy 72 22 55 13 57 57 NNW 12 19 29.99 1016 10 16.0934 0 0
12:58 am 00:58 Cloudy 69 20.3 57 14 67 67 NNW 6 9 29.99 1016 10 16.0934 0 0
1:58 am 01:58 Cloudy 67 19.7 58 14.5 72 72 Calm 29.97 1015 10 16.0934 0 0
2:58 am 02:58 Cloudy 67 19.5 58 14.5 73 73 SSE 7 11 29.94 1014 10 16.0934 0 0
3:58 am 03:58 Mostly Cloudy 65 18.3 60 15.5 84 84 Calm 29.95 1014 10 16.0934 0 0
4:58 am 04:58 Partly Cloudy 64 17.8 58 14.7 82 82 S 3 6 29.94 1014 10 16.0934 0 0
5:58 am 05:58 Mostly Cloudy 62 16.8 60 15.6 93 93 Calm 29.97 1015 10 16.0934 0 0
6:58 am 06:58 Mostly Cloudy 65 18.1 62 16.5 90 90 Calm 29.97 1015 10 16.0934 0 0
7:58 am 07:58 Mostly Cloudy 66 18.8 63 17.3 91 91 Calm 29.99 1016 10 16.0934 0 0
8:58 am 08:58 Partly Cloudy 71 21.4 62 16.5 74 74 Calm 30.01 1016 10 16.0934 0 0
9:58 am 09:58 Mostly Sunny 74 23.5 62 16.7 66 66 SW 3 6 29.98 1015 10 16.0934 0 0
10:59 am 10:59 Mostly Cloudy 76 24.7 62 16.8 62 62 SSW 3 6 29.98 1015 10 16.0934 0 0
11:58 am 11:58 Mostly Sunny 79 26.2 63 17.2 58 58 SW 8 13 29.97 1015 10 16.0934 0 0
12:58 pm 12:58 Partly Cloudy 81 27.4 63 17.1 53 53 SSW 7 11 29.97 1015 10 16.0934 0 0
1:58 pm 13:58 Mostly Cloudy 83 28.3 65 18.1 54 54 SW 12 19 29.95 1014 10 16.0934 0 0
2:58 pm 14:58 Mostly Cloudy 85 29.3 65 18.4 52 52 SW 10 17 29.94 1014 10 16.0934 0 0
3:58 pm 15:58 Partly Cloudy 84 29.1 66 18.9 54 54 NW 8 13 29.94 1014 10 16.0934 0 0
4:58 pm 16:58 Mostly Sunny 86 30.1 66 18.9 51 51 W 8 13 29.93 1014 10 16.0934 0 0
5:58 pm 17:58 Partly Cloudy 85 29.5 66 19.1 54 54 NW 8 13 29.93 1014 10 16.0934 0 0
6:58 pm 18:58 Mostly Sunny 86 30.2 64 18 48 48 WNW 7 11 29.92 1013 10 16.0934 0 0
7:58 pm 19:58 Sunny 85 29.2 65 18.3 52 52 NW 3 6 29.92 1013 10 16.0934 0 0
8:58 pm 20:58 Mostly Sunny 82 27.7 69 20.4 65 65 NE 3 6 29.93 1014 10 16.0934 0 0
9:58 pm 21:58 Cloudy 78 25.8 68 20 70 70 E 3 6 29.93 1014 10 16.0934 0 0
10:10 pm 22:10 Cloudy with Nearby Thunderstorms 79 26 68 20 70 70 SSW 8 13 29.91 1013 10 16.0934 0 0
10:27 pm 22:27 Cloudy 77 25 70 21 79 79 SW 14 22 29.94 1014 10 16.0934 0 0
10:58 pm 22:58 Cloudy 76 24.4 70 21.1 82 82 SSW 6 9 29.96 1015 10 16.0934 0 0
11:58 pm 23:58 Clear 75 23.7 70 20.9 84 84 SW 5 7 29.96 1015 10 16.0934 0 0

Powered by AerisWeather